• Join FlightAware (Why Join?)
  • Login
  • US Flag 
12:23PM EDT


 

Airport Tracker/Info


-or-


 

Live Flight TrackerFlight Track Log ✈ VHT11 ✈ 29-Jun-2013 ✈ KLAS - KCMA

Flight Track Log - Related Links

Times and Time Zones

All times are in EDT time to prevent confusion due to time zone crossing. See the VHT11 flight status page for this flight to view local times or setup timezone preferences in your user account.

Time Position Orientation Groundspeed Altitude Reporting Facility
EDT Latitude Longitude Course Direction KTS MPH feet Rate Location/Type
11:54AM 36.0753 -115.1153 91° East 183 211 2,900  Level Los Angeles Center
11:56AM 36.0736 -114.9986 91° East 266 306 5,200 2,160 Climbing Los Angeles Center
11:57AM 36.0236 -114.9275 131° Southeast 280 322 8,200 2,700 Climbing Los Angeles Center
11:58AM 35.9444 -114.9219 177° South 281 323 11,000 2,280 Climbing Los Angeles Center
11:59AM 35.8908 -114.9928 227° Southwest 307 353 12,900 1,860 Climbing Los Angeles Center
12:00PM 35.8278 -115.0811 229° Southwest 329 379 15,000 1,980 Climbing Los Angeles Center
12:01PM 35.7594 -115.1778 229° Southwest 361 415 17,400 2,580 Climbing Los Angeles Center
12:02PM 35.6747 -115.2975 229° Southwest 379 436 20,400 2,220 Climbing Los Angeles Center
12:03PM 35.5989 -115.3983 227° Southwest 392 451 22,000 720 Climbing Los Angeles Center
12:04PM 35.5175 -115.5108 228° Southwest 428 493 22,000  Level Los Angeles Center
12:05PM 35.4444 -115.6083 227° Southwest 436 502 22,000  Level Los Angeles Center
12:06PM 35.3478 -115.7383 228° Southwest 431 496 22,000  Level Los Angeles Center
12:07PM 35.2664 -115.8456 227° Southwest 430 495 22,000  Level Los Angeles Center
12:08PM 35.1692 -115.9722 227° Southwest 427 491 22,000  Level Los Angeles Center
12:09PM 35.0892 -116.0808 228° Southwest 429 494 22,000  Level Los Angeles Center
12:10PM 35.0508 -116.2194 251° West 430 495 22,000  Level Los Angeles Center
12:11PM 35.0206 -116.3639 256° West 437 503 22,000 -300 Level Los Angeles Center
12:12PM 34.9889 -116.5069 255° West 437 503 21,500 -780 Descending Los Angeles Center
12:14PM 34.9489 -116.6853 255° West 450 518 20,400 -720 Descending Los Angeles Center
12:15PM 34.9139 -116.8381 254° West 463 533 20,000 -240 Descending Los Angeles Center
12:16PM 34.8806 -116.9864 255° West 457 526 20,000  Level Los Angeles Center
12:17PM 34.8469 -117.1322 254° West 448 516 20,000  Level Los Angeles Center
12:18PM 34.8139 -117.2767 254° West 441 507 20,000  Level Los Angeles Center
12:19PM 34.7742 -117.4500 254° West 440 506 20,000 -360 Level Los Angeles Center
12:20PM 34.7408 -117.5933 254° West 437 503 19,300 -1,680 Descending Los Angeles Center
12:21PM 34.7058 -117.7411 254° West 450 518 16,600 -2,880 Descending Los Angeles Center
12:22PM 34.6714 -117.8789 253° West 431 496 13,400 -2,760 Descending Los Angeles Center
12:23PM 34.6386 -117.9978 252° West 374 430 10,900 -1,860 Descending Los Angeles Center
12:24PM 34.6103 -118.1039 252° West 333 383 9,600 -1,260 Descending Los Angeles Center
12:25PM 34.5831 -118.2064 252° West 295 339 8,300 -780 Descending Los Angeles Center
12:26PM 34.5561 -118.2944 250° West 283 326 8,000 -60 Descending Los Angeles Center
12:27PM 34.5258 -118.3831 247° West 285 328 8,200 -60 Climbing Los Angeles Center
12:28PM 34.4908 -118.4878 248° West 283 326 7,900 -720 Descending Los Angeles Center
12:29PM 34.4608 -118.5750 247° West 282 325 6,800 -960 Descending Los Angeles Center
12:30PM 34.4336 -118.6564 248° West 266 306 6,000 -540 Descending Los Angeles Center
12:31PM 34.4103 -118.7022 238° Southwest 255 293 6,000  Level Los Angeles Center
12:32PM 34.3747 -118.8231 250° West 275 316 6,000 -60 Level Los Angeles Center
12:33PM 34.3439 -118.8675 230° Southwest 262 302 5,900 -1,380 Descending Los Angeles Center
12:34PM 34.3028 -118.9356 234° Southwest 241 277 3,900 -1,740 Descending Los Angeles Center
12:34PM 34.2864 -118.9736 242° Southwest 248 285 3,300 -1,020 Descending Los Angeles Center
12:35PM 34.2578 -118.9944 211° Southwest 231 266 2,900 -780 Descending Los Angeles Center
12:35PM 34.2358 -119.0067 205° Southwest 227 261 2,500 -1,260 Descending Los Angeles Center
12:37PM 34.2122 -119.0611 242° Southwest 119 137 400 -1,440 Descending Los Angeles Center
12:39PM 34.2000 -119.0833 259° West  Level FlightAware Approximate